Regional Weather Roundup
Issued by NWS

Home | Current Version | Previous Version | Graphics & Text | Print | Product List | Glossary On
Versions: 1 2 3 4 5 6 7 8 9 10 11 12 13 14 15 16 17 18 19 20 21 22 23 24 25 26 27 28 29 30 31 32 33 34 35 36 37 38 39 40 41 42 43 44 45 46 47 48 49 50
000
ASUS45 KSLC 221110
RWRUT

UTAH REGIONAL WEATHER ROUNDUP
NATIONAL WEATHER SERVICE SALT LAKE CITY UT
400 AM MST MON DEC 22 2014

UTZ001>011-023>025-221200-

NORTHERN UTAH

CITY           SKY/WX    TMP DP  RH WIND       PRES   REMARKS
BRIGHAM CITY   CLOUDY    39  33  77 SE3       30.00F
HILL AFB       CLOUDY    39  36  91 S7        30.00F WCI  34
LOGAN          CLOUDY    39  30  70 CALM      29.98F
OGDEN          CLOUDY    40  35  83 S3        30.00F
PROVO AIRPORT  CLOUDY    39  36  87 NE5       30.05S
SALT LAKE CITY LGT RAIN  41  36  82 SE7       30.02F
VERNAL         CLOUDY    38  30  73 E5        29.87F WCI  34
WENDOVER       CLOUDY    43  34  70 S8        30.01F
HEBER CITY     MIX PCPN  36  32  87 CALM      29.99S
WEST JORDAN    CLOUDY    37  37 100 S8        30.04S WCI  31

$$

UTZ012>022-026-027-221200-

SOUTHERN/CENTRAL UTAH

CITY           SKY/WX    TMP DP  RH WIND       PRES   REMARKS
BLANDING       PTCLDY    34  32  91 SE3       30.02S
BRYCE CANYON   CLEAR     36  31  82 NW8       30.07S WCI  30
CEDAR CITY     MOCLDY    40  33  76 SE8       30.07S WCI  34
DELTA          CLOUDY    41  40  94 E3        30.04F
MILFORD        PTCLDY    35  31  85 NW7       30.06S WCI  29
MOAB/CYNLANDS  CLEAR     34  31  88 W8        29.91F WCI  27
PRICE          CLOUDY    41  28  60 NW17G29   29.92S
ST GEORGE      CLOUDY    36  30  80 CALM      30.09S
KANAB          CLEAR     30  30 100 NE5       30.09F WCI  25

$$

REGIONAL REPORTS     COLORADO/ARIZONA

CITY           SKY/WX    TMP DP  RH WIND       PRES   REMARKS
CRAIG, CO      MOCLDY    33  26  75 W10       29.86S WCI  25
GRAND JUNCTION CLOUDY    32  31  96 E3        29.89S
RIFLE          CLOUDY    35  32  88 W5        29.88R WCI  31
MONTROSE       CLOUDY    32  30  92 SE6       29.91S WCI  26
CORTEZ         MOCLDY    34  31  88 CALM      29.95F
PAGE, AZ       PTCLDY    38  31  76 E6        29.98F WCI  33
GRAND CANYON   PTCLDY    25  23  92 CALM      30.10F
KINGMAN        PTCLDY    39  34  82 W3        30.08F
FLAGSTAFF      PTCLDY    40  30  67 CALM      30.08F

$$

REGIONAL REPORTS    NEVADA/IDAHO/WYOMING

CITY           SKY/WX    TMP DP  RH WIND       PRES   REMARKS
LAS VEGAS, NV  PTCLDY    46  39  76 SW8       30.04F
ELY            CLOUDY    45  36  70 W3        30.16S
ELKO           CLOUDY    44  41  89 W7        30.10F
POCATELLO, ID  LGT RAIN  34  34 100 SW21      29.98R FOG     WCI  22
BURLEY         CLOUDY    37  33  85 W12       29.99F WCI  29
EVANSTON, WY   CLOUDY    30  27  88 W14       29.94S WCI  19
ROCK SPRINGS   PTCLDY    26  22  84 NE7       29.86R WCI  18
KEMMERER       LGT SNOW  28  27  93 W21       29.89S WCI  15

$$



USA.gov is the U.S. government's official web portal to all federal, state and local government web resources and services.